Home   Weather   Andorra La Vella   Past weeks

Flag for Andorra Past Weather in Andorra La Vella, Andorra — Yesterday and Last 2 Weeks

Now
52 °F

Mostly cloudy.


Feels Like: 48 °F
Forecast: 23 / 52 °F
Wind: 10 mph from East

Location: Carcassonne Airport

Current Time: Dec 9, 2016 at 1:18:48 am

Latest Report: Dec 9, 2016 at 12:30 am


Visibility: N/A

Pressure: 30.51 "Hg (26.95 "Hg at 1031m altitude)

Humidity: 82%

Dew Point: 46 °F

Location of Andorra La VellaLocation

Past Weather in Andorra La Vella — Graph

°F

Andorra La Vella Temperature Yesterday

Maximum temperature yesterday: 57 °F (at 3:00 pm)
Minimum temperature yesterday: 46 °F (at 12:30 am)
Average temperature yesterday: 51 °F

High & Low Weather Summary for the Past Weeks

 TemperatureHumidityPressure
High63 °F (Dec 6, 1:30 pm)100% (Nov 24, 2:00 am)30.54 "Hg (Nov 24, 2:00 am)
Low28 °F (Dec 3, 7:30 am)48% (Dec 2, 2:30 pm)29.56 "Hg (Nov 24, 12:30 am)
Average48 °F86%30.12 "Hg
* Reported Nov 24 12:00 am — Dec 9 12:00 am, Andorra La Vella, Weather by CustomWeather, © 2016

Note: Actual official high and low records may vary slightly from our data, if they occured in-between our weather recording intervals... More about our weather records

Advertising

Andorra La Vella Weather History for the Previous 24 Hours

Scroll right to see more
 ConditionsComfort  
Time TempWeatherWind HumidityBarometerVisibility
12:00 am
Fri, Dec 9
52 °FPassing clouds.9 mph82%30.51 "HgN/A
11:30 pm
Thu, Dec 8
52 °FPassing clouds.10 mph82%30.51 "HgN/A
11:00 pm52 °FPassing clouds.10 mph82%30.51 "HgN/A
10:30 pm52 °FPassing clouds.10 mph82%30.51 "HgN/A
10:00 pm52 °FPassing clouds.12 mph88%30.51 "HgN/A
9:30 pm52 °FPassing clouds.12 mph88%30.51 "HgN/A
9:00 pm52 °FPassing clouds.12 mph88%30.51 "HgN/A
8:30 pm52 °FPassing clouds.12 mph88%30.51 "HgN/A
8:00 pm52 °FPassing clouds.12 mph88%30.51 "HgN/A
7:30 pm52 °FPassing clouds.10 mph88%30.51 "HgN/A
7:00 pm52 °FPassing clouds.10 mph88%30.51 "HgN/A
6:30 pm52 °FPassing clouds.10 mph88%30.51 "HgN/A
6:00 pm52 °FPassing clouds.9 mph94%30.51 "HgN/A
5:30 pm54 °FPassing clouds.10 mph88%30.51 "HgN/A
5:00 pm54 °FOvercast.13 mph88%30.51 "HgN/A
4:30 pm55 °FPartly sunny.14 mph82%30.48 "HgN/A
4:00 pm55 °FPartly sunny.14 mph77%30.51 "HgN/A
3:30 pm55 °FCool.14 mph77%30.51 "HgN/A
3:00 pm57 °FPassing clouds.15 mph72%30.51 "HgN/A
2:30 pm55 °FPassing clouds.13 mph77%30.51 "HgN/A
2:00 pm55 °FPassing clouds.14 mph72%30.51 "HgN/A
1:30 pm55 °FPassing clouds.12 mph72%30.51 "HgN/A
1:00 pm55 °FScattered clouds.13 mph72%30.54 "HgN/A
12:30 pm54 °FPassing clouds.15 mph77%30.54 "HgN/A
12:00 pm54 °FPartly sunny.13 mph72%30.54 "HgN/A
11:30 am54 °FBroken clouds.13 mph72%30.54 "HgN/A
11:00 am52 °FScattered clouds.12 mph77%30.54 "HgN/A
10:30 am50 °FPartly sunny.12 mph76%30.54 "HgN/A
10:00 am50 °FMostly cloudy.10 mph71%30.54 "HgN/A
9:30 am48 °FMostly cloudy.7 mph76%30.54 "HgN/A
9:00 am48 °FOvercast.8 mph71%30.54 "HgN/A
8:30 am48 °FOvercast.12 mph76%30.51 "HgN/A
8:00 am48 °FPassing clouds.12 mph71%30.51 "HgN/A
7:30 am48 °FPassing clouds.10 mph71%30.51 "HgN/A
7:00 am48 °FOvercast.12 mph71%30.51 "HgN/A
6:30 am48 °FOvercast.15 mph76%30.51 "HgN/A
6:00 am48 °FOvercast.13 mph71%30.48 "HgN/A
5:30 am48 °FOvercast.15 mph71%30.48 "HgN/A
5:00 am48 °FMostly cloudy.15 mph71%30.48 "HgN/A
4:30 am48 °FMostly cloudy.13 mph76%30.48 "HgN/A
3:30 am48 °FPassing clouds.17 mph76%30.48 "HgN/A
2:30 am46 °FPassing clouds.13 mph82%30.48 "HgN/A
2:00 am46 °FOvercast.7 mph87%30.48 "HgN/A
1:30 am46 °FOvercast.6 mph87%30.48 "HgN/A
1:00 am46 °FPassing clouds.7 mph87%30.51 "HgN/A
Weather by CustomWeather, © 2016

See weather overviewHow to use our weather pages